Regional Weather Roundup
Issued by NWS

Home | Current Version | Previous Version | Graphics & Text | Print | Product List | Glossary On
Versions: 1 2 3 4 5 6 7 8 9 10 11 12 13 14 15 16 17 18 19 20 21 22 23 24 25 26 27 28 29 30 31 32 33 34 35 36 37 38 39 40 41 42 43 44 45 46 47 48 49 50
000
ASUS43 KMPX 242201
RWRMN
WEATHER ROUNDUP FOR MINNESOTA
NATIONAL WEATHER SERVICE TWIN CITIES/CHANHASSEN MN
500 PM CDT MON APR 24 2017


NOTE: "FAIR" INDICATES FEW OR NO CLOUDS BELOW 12,000 FEET WITH NO
SIGNIFICANT WEATHER AND/OR OBSTRUCTIONS TO VISIBILITY. N/A MEANS
CURRENT SKY AND/OR WEATHER CONDITIONS ARE NOT AVAILABLE.

MNZ060>063-068>070-242300-
   Twin Cities Metro

CITY           SKY/WX    TMP DP  RH WIND       PRES   REMARKS
TWIN CITIES    CLOUDY    69  28  21 S16G30    29.61S
ST PAUL        CLOUDY    68  30  24 S15G29    29.62S
CRYSTAL        CLOUDY    67  28  23 S25G37    29.60R
LAKEVILLE      CLOUDY    66  32  28 S10G17    29.60F
EDEN PRAIRIE   CLOUDY    69  29  22 S10G23    29.59F
SOUTH ST PAUL  CLOUDY    69  28  22 S12       29.61S
LAKE ELMO      FAIR      68  32  26 S17G26    29.64R
$$
MNZ001>005-007-008-013>017-022>024-027-028-242300-
   Northwest Minnesota

CITY           SKY/WX    TMP DP  RH WIND       PRES   REMARKS
BEMIDJI        HVY RAIN  42  40  92 NE6       29.56S
HALLOCK        DRIZZLE   36  32  87 NE10      29.67S
ROSEAU         DRIZZLE   34  28  80 NE15      29.66F WCI  24
WARROAD        LGT RAIN  34  30  86 NE17G23   29.69R WCI  23
THIEF RVR FALL LGT RAIN  36  34  92 NE13      29.60
CROOKSTON      CLOUDY    37  37 100 NE9       29.61R
FOSSTON        LGT RAIN  41  39  93 NE7       29.57R
DETROIT LAKES  DRIZZLE   50  46  87 CALM      29.53F
MOORHEAD       CLOUDY    48  45  87 N10       29.52S
PARK RAPIDS    LGT RAIN  53  45  74 NW7       29.53R
MAHNOMEN       CLOUDY    46  43  91 E6        29.53S
$$
MNZ006-009>011-018-025>026-242300-
   North Central Minnesota

CITY           SKY/WX    TMP DP  RH WIND       PRES   REMARKS
BAUDETTE       LGT RAIN  34  31  88 E7        29.65S WCI  28
FLAG ISLAND    LGT SNOW  32  30  93 NE14      29.71F WCI  22
INTL FALLS     RAIN      37  34  89 VRB7      29.68R FOG
WASKISH        LGT RAIN  39  37  93 NE8       29.61S
BIG FORK       CLOUDY    45  34  65 E8G17     29.61F
LONGVILLE      CLOUDY    54  39  58 E6        29.54F
GRAND RAPIDS   CLOUDY    45  32  60 VRB6      29.62F
CRANE LAKE     CLOUDY    39  34  81 E8        29.69F
ORR            DRIZZLE   39  30  70 SE7G16    29.63S
COOK           LGT RAIN  39  30  70 E9G16     29.66S
WALKER         RAIN      56  38  50 S6        29.53F
$$
MNZ012-019>021-037-242300-
   Northeast Minnesota

CITY           SKY/WX    TMP DP  RH WIND       PRES   REMARKS
DULUTH         CLOUDY    38  31  76 E25G39    29.66F
ELY            CLOUDY    37  28  70 E14G20    29.68F
HIBBING        CLOUDY    40  30  67 SE15      29.64F
EVELETH        CLOUDY    40  26  57 E7        29.66F
DULUTH HARBOR  PTSUNNY   39  36  87 NE30G38   29.72F
TWO HARBORS    CLOUDY    39  34  81 NE24G35   29.70F
SILVER BAY     CLOUDY    36  32  87 NE16G24   29.74F
GRAND MARAIS     N/A     39  30  70 NE21G30   29.81F
G MARAIS ARPRT CLOUDY    34  25  69 NE16      29.78F WCI  23
$$
MNZ029>031-032-039>041-046>048-054>057-064-242300-
   West Central Minnesota

CITY           SKY/WX    TMP DP  RH WIND       PRES   REMARKS
FERGUS FALLS   LGT RAIN  54  48  82 W6        29.50S
WHEATON        CLOUDY    55  46  71 NW10      29.51R
MORRIS         CLOUDY    64  39  39 S21       29.49F
ALEXANDRIA     CLOUDY    58  42  55 S13G22    29.53R
ELBOW LAKE     PTSUNNY   60  42  51 S15G21    29.50F
WADENA         RAIN      57  43  58 S13G28    29.53R
GLENWOOD       DRIZZLE   59  41  51 S20       29.53F
APPLETON       CLOUDY    66  37  34 SW20G26   29.49F
BENSON         CLOUDY    64  34  32 SW16G25   29.53F
ORTONVILLE     CLOUDY    64  41  42 S9        29.48F
MADISON        CLOUDY    68  39  34 SW20      29.49F
WILLMAR        FAIR      66  37  34 S6        29.56F
$$
MNZ033>034-036-042>043-049>051-058-059-242300-
   Central Minnesota

CITY           SKY/WX    TMP DP  RH WIND       PRES   REMARKS
ST CLOUD       CLOUDY    64  32  30 S15       29.57R
SAUK CENTRE    DRIZZLE   59  38  46 S16G28    29.55R
PAYNESVILLE    CLOUDY    64  32  30 S12G18    29.56F
AITKIN         CLOUDY    55  32  41 E12G20    29.55F
PINE RIVER     CLOUDY    63  37  39 S9        29.56F
BRAINERD       CLOUDY    66  32  28 S18G26    29.53F
STAPLES        DRIZZLE   63  32  31 S22G28    29.54R
LONG PRAIRIE   RAIN      59  37  44 S26G35    29.56R
LITTLE FALLS   CLOUDY    64  28  25 S17G30    29.54F
LITCHFIELD     CLOUDY    64  39  39 S9G17     29.57F
BUFFALO        LGT RAIN  62  38  40 SE15G26   29.61S
MAPLE LAKE     LGT RAIN  65  37  35 S15G28    29.59F
HUTCHINSON     CLOUDY    61  45  55 SE7       29.57F
$$
MNZ037-044-045-052-053-242300-
   East Central Minnesota

CITY           SKY/WX    TMP DP  RH WIND       PRES   REMARKS
PRINCETON      CLOUDY    66  30  26 S16G24    29.60R
MORA           CLOUDY    64  32  29 S13G18    29.60F
CAMBRIDGE      CLOUDY    70  43  37 S10G16    29.58S
RUSH CITY      CLOUDY    66  32  28 S13G22    29.61S
MOOSE LAKE     CLOUDY    43  32  65 NE12G17   29.62S
HINCKLEY       CLOUDY    66  34  30 S13       29.60F
CLOQUET        CLOUDY    39  30  70 E17G24    29.66R
MCGREGOR       CLOUDY    46  34  61 E14G20    29.60F
$$
MNZ071>073-080-081-089-090-097-098-242300-
   Southwest Minnesota

CITY           SKY/WX    TMP DP  RH WIND       PRES   REMARKS
MONTEVIDEO     PTSUNNY   66  39  37 SW18G28   29.51F
GRANITE FALLS  CLOUDY    68  42  40 S16G22    29.54F
CANBY          CLOUDY    67  38  35 SW15G23   29.51S
MARSHALL       PTSUNNY   67  40  37 SW17      29.51F
REDWOOD FALLS  CLOUDY    65  39  38 VRB5      29.53F
OLIVIA         PTSUNNY   64  37  36 S12       29.54F
PIPESTONE      CLOUDY    64  37  36 SW12      29.51F
WINDOM         CLOUDY    68  30  24 S13G25    29.54F
WORTHINGTON    CLOUDY    66  36  32 S22G30    29.53F
JACKSON        CLOUDY    68  30  24 S21G26    29.56F
TRACY          PTSUNNY   67  42  40 S6        29.52F
SLAYTON        CLOUDY    66  37  34 S21G31    29.53F
$$
MNZ065>067-074>077-082>085-091>093-242300-
   South Central Minnesota

CITY           SKY/WX    TMP DP  RH WIND       PRES   REMARKS
MANKATO        CLOUDY    69  29  22 S17       29.57F
NEW ULM        CLOUDY    68  30  24 S22G32    29.54F
ST JAMES       CLOUDY    68  32  26 S16       29.56F
FAIRMONT       CLOUDY    69  30  23 S17       29.56F
GLENCOE        CLOUDY    64  42  44 SE12      29.56F
FARIBAULT      CLOUDY    70  30  23 SE14G22   29.61F
OWATONNA       CLOUDY    70  25  18 S18G25    29.61F
WASECA         CLOUDY    64  32  29 S21       29.61F
ALBERT LEA     CLOUDY    68  21  17 S14G21    29.61S
$$
MNZ078>079-086>088-094>096-242300-
   Southeast Minnesota

CITY           SKY/WX    TMP DP  RH WIND       PRES   REMARKS
ROCHESTER      CLOUDY    67  31  26 S22G29    29.64F
RED WING       CLOUDY    70  27  19 S13G21    29.62F
STANTON        CLOUDY    69  28  22 S14G23    29.60F
DODGE CENTER   CLOUDY    66  28  24 S22       29.63F
WINONA         CLOUDY    70  30  23 S10G23    29.67S
AUSTIN         CLOUDY    68  27  21 S15G23    29.62F
PRESTON        MOSUNNY   67  29  23 S20G29    29.65F
$$
ABBREVIATIONS USED IN REMARKS
   TC - TEMPERATURES IN CELSIUS
  WCI - WIND CHILL INDEX
   HX - HEAT INDEX
  VSB - VISIBILITY
$$




USA.gov is the U.S. government's official web portal to all federal, state and local government web resources and services.